Multibeam Report for MGL0814


Ship Name: Marcus G. Langseth
Chief Scientist: Gulick, Sean
University of Texas Institute for Geophysics
Source Organization: UNOLS R2R
Start Date: 2008-09-10
End Date: 2008-10-06


View ISO Metadata

Visit the full NCEI Bathymetry Viewer


Multibeam Bathymetry

Cruise Details

Project: ST. Elias Erosion/Tectonics Project (STEEP)
Instrument: Kongsberg EM120

Data Quality

Number of Files: 283
Number of Records: 737906
BATHYMETRY DATA Quantity Percentage
Number of Beams 140933934 100%
Number of Good Beams 125563702 89.09%
Number of Zero Beams 15370232 10.91%
Number of Flagged Beams 0 0%

Navigation Totals

Total Time: 538.4802 hours
Total Track Length: 6806.6758 km
Average Speed: 12.641 km/hr (6.8256 knots)

Cruise Bounds

Northern Extent: 60.03873
Southern Extent: 46.194798
Western Extent: -144.71863
Eastern Extent: -124.05108

Limits

Minimum Sonar Depth 3.33 Maximum Sonar Depth 12.58
Minimum Altitude 0 Maximum Altitude 4574.6401
Minimum Depth 6.12 Maximum Depth 4703.9399

File Information

Full Resolution Bathymetry as collected (raw): 282

Files File Size Description
0000_20080910_203444_MGL.all.mb56.gz 6.29MB Simrad multibeam vendor format
0001_20080910_204807_MGL.all.mb56.gz 38.85MB Simrad multibeam vendor format
0002_20080910_224806_MGL.all.mb56.gz 23.58MB Simrad multibeam vendor format
0003_20080911_004806_MGL.all.mb56.gz 14.26MB Simrad multibeam vendor format
0004_20080911_024806_MGL.all.mb56.gz 10.83MB Simrad multibeam vendor format
0005_20080911_044806_MGL.all.mb56.gz 11.16MB Simrad multibeam vendor format
0006_20080911_064806_MGL.all.mb56.gz 11.49MB Simrad multibeam vendor format
0007_20080911_084806_MGL.all.mb56.gz 10.01MB Simrad multibeam vendor format
0008_20080911_104806_MGL.all.mb56.gz 9.49MB Simrad multibeam vendor format
0009_20080911_124805_MGL.all.mb56.gz 9.64MB Simrad multibeam vendor format
0010_20080911_144805_MGL.all.mb56.gz 9.21MB Simrad multibeam vendor format
0011_20080911_164805_MGL.all.mb56.gz 9.62MB Simrad multibeam vendor format
0012_20080911_184805_MGL.all.mb56.gz 10.04MB Simrad multibeam vendor format
0013_20080911_204805_MGL.all.mb56.gz 10.30MB Simrad multibeam vendor format
0014_20080911_224805_MGL.all.mb56.gz 1.07MB Simrad multibeam vendor format
0015_20080911_230001_MGL.all.mb56.gz 10.22MB Simrad multibeam vendor format
0016_20080912_010000_MGL.all.mb56.gz 9.73MB Simrad multibeam vendor format
0017_20080912_030000_MGL.all.mb56.gz 9.95MB Simrad multibeam vendor format
0018_20080912_050000_MGL.all.mb56.gz 10.62MB Simrad multibeam vendor format
0019_20080912_070000_MGL.all.mb56.gz 10.77MB Simrad multibeam vendor format
0020_20080912_090000_MGL.all.mb56.gz 10.41MB Simrad multibeam vendor format
0021_20080912_110000_MGL.all.mb56.gz 10.43MB Simrad multibeam vendor format
0022_20080912_130000_MGL.all.mb56.gz 10.12MB Simrad multibeam vendor format
0023_20080912_150000_MGL.all.mb56.gz 10.33MB Simrad multibeam vendor format
0024_20080912_165959_MGL.all.mb56.gz 10.51MB Simrad multibeam vendor format
0025_20080912_185959_MGL.all.mb56.gz 10.52MB Simrad multibeam vendor format
0026_20080912_205959_MGL.all.mb56.gz 9.51MB Simrad multibeam vendor format
0027_20080912_225959_MGL.all.mb56.gz 11.10MB Simrad multibeam vendor format
0028_20080913_005959_MGL.all.mb56.gz 13.33MB Simrad multibeam vendor format
0029_20080913_025959_MGL.all.mb56.gz 11.84MB Simrad multibeam vendor format
0030_20080913_045959_MGL.all.mb56.gz 9.76MB Simrad multibeam vendor format
0031_20080913_065958_MGL.all.mb56.gz 9.92MB Simrad multibeam vendor format
0032_20080913_085958_MGL.all.mb56.gz 8.75MB Simrad multibeam vendor format
0033_20080913_105958_MGL.all.mb56.gz 9.58MB Simrad multibeam vendor format
0034_20080913_125958_MGL.all.mb56.gz 7.82MB Simrad multibeam vendor format
0035_20080913_145958_MGL.all.mb56.gz 8.33MB Simrad multibeam vendor format
0036_20080913_165958_MGL.all.mb56.gz 28.55MB Simrad multibeam vendor format
0037_20080913_185958_MGL.all.mb56.gz 33.46MB Simrad multibeam vendor format
0038_20080913_205957_MGL.all.mb56.gz 32.28MB Simrad multibeam vendor format
0039_20080913_225957_MGL.all.mb56.gz 38.23MB Simrad multibeam vendor format
0040_20080914_005957_MGL.all.mb56.gz 41.88MB Simrad multibeam vendor format
0041_20080914_025957_MGL.all.mb56.gz 32.78MB Simrad multibeam vendor format
0042_20080914_045957_MGL.all.mb56.gz 11.68MB Simrad multibeam vendor format
0043_20080914_065957_MGL.all.mb56.gz 10.58MB Simrad multibeam vendor format
0044_20080914_085957_MGL.all.mb56.gz 17.80MB Simrad multibeam vendor format
0045_20080914_105956_MGL.all.mb56.gz 37.70MB Simrad multibeam vendor format
0046_20080914_125956_MGL.all.mb56.gz 27.72MB Simrad multibeam vendor format
0047_20080914_145956_MGL.all.mb56.gz 25.83MB Simrad multibeam vendor format
0048_20080914_165956_MGL.all.mb56.gz 35.53MB Simrad multibeam vendor format
0049_20080914_185956_MGL.all.mb56.gz 34.01MB Simrad multibeam vendor format
0050_20080914_205956_MGL.all.mb56.gz 36.96MB Simrad multibeam vendor format
0051_20080914_225956_MGL.all.mb56.gz 33.68MB Simrad multibeam vendor format
0052_20080915_005956_MGL.all.mb56.gz 9.99MB Simrad multibeam vendor format
0053_20080915_025955_MGL.all.mb56.gz 32.22MB Simrad multibeam vendor format
0054_20080915_045955_MGL.all.mb56.gz 32.70MB Simrad multibeam vendor format
0055_20080915_065955_MGL.all.mb56.gz 38.58MB Simrad multibeam vendor format
0056_20080915_085955_MGL.all.mb56.gz 39.52MB Simrad multibeam vendor format
0057_20080915_105955_MGL.all.mb56.gz 11.30MB Simrad multibeam vendor format
0058_20080915_114133_MGL.all.mb56.gz 31.13MB Simrad multibeam vendor format
0060_20080915_134731_MGL.all.mb56.gz 429 Bytes Simrad multibeam vendor format
0062_20080915_152309_MGL.all.mb56.gz 36.49MB Simrad multibeam vendor format
0063_20080915_172309_MGL.all.mb56.gz 31.56MB Simrad multibeam vendor format
0064_20080915_192309_MGL.all.mb56.gz 28.81MB Simrad multibeam vendor format
0065_20080915_212309_MGL.all.mb56.gz 17.47MB Simrad multibeam vendor format
0066_20080915_232308_MGL.all.mb56.gz 12.14MB Simrad multibeam vendor format
0067_20080916_012308_MGL.all.mb56.gz 8.76MB Simrad multibeam vendor format
0068_20080916_032308_MGL.all.mb56.gz 8.59MB Simrad multibeam vendor format
0069_20080916_052308_MGL.all.mb56.gz 8.49MB Simrad multibeam vendor format
0070_20080916_072308_MGL.all.mb56.gz 9.04MB Simrad multibeam vendor format
0071_20080916_092308_MGL.all.mb56.gz 9.11MB Simrad multibeam vendor format
0072_20080916_112308_MGL.all.mb56.gz 8.76MB Simrad multibeam vendor format
0073_20080916_132308_MGL.all.mb56.gz 8.90MB Simrad multibeam vendor format
0074_20080916_152307_MGL.all.mb56.gz 9.03MB Simrad multibeam vendor format
0075_20080916_172307_MGL.all.mb56.gz 9.11MB Simrad multibeam vendor format
0076_20080916_192307_MGL.all.mb56.gz 8.82MB Simrad multibeam vendor format
0077_20080916_212307_MGL.all.mb56.gz 8.58MB Simrad multibeam vendor format
0078_20080916_232307_MGL.all.mb56.gz 10.92MB Simrad multibeam vendor format
0079_20080917_012307_MGL.all.mb56.gz 19.87MB Simrad multibeam vendor format
0080_20080917_032307_MGL.all.mb56.gz 27.24MB Simrad multibeam vendor format
0081_20080917_052307_MGL.all.mb56.gz 28.93MB Simrad multibeam vendor format
0082_20080917_072306_MGL.all.mb56.gz 29.22MB Simrad multibeam vendor format
0083_20080917_092306_MGL.all.mb56.gz 25.13MB Simrad multibeam vendor format
0084_20080917_112306_MGL.all.mb56.gz 7.23MB Simrad multibeam vendor format
0085_20080917_132306_MGL.all.mb56.gz 11.06MB Simrad multibeam vendor format
0086_20080917_152306_MGL.all.mb56.gz 9.10MB Simrad multibeam vendor format
0087_20080917_172201_MGL.all.mb56.gz 9.12MB Simrad multibeam vendor format
0088_20080917_192215_MGL.all.mb56.gz 9.90MB Simrad multibeam vendor format
0089_20080917_212230_MGL.all.mb56.gz 9.88MB Simrad multibeam vendor format
0090_20080917_232244_MGL.all.mb56.gz 9.79MB Simrad multibeam vendor format
0091_20080918_012259_MGL.all.mb56.gz 9.64MB Simrad multibeam vendor format
0092_20080918_032313_MGL.all.mb56.gz 9.46MB Simrad multibeam vendor format
0093_20080918_052328_MGL.all.mb56.gz 9.33MB Simrad multibeam vendor format
0094_20080918_072336_MGL.all.mb56.gz 9.46MB Simrad multibeam vendor format
0095_20080918_092336_MGL.all.mb56.gz 9.42MB Simrad multibeam vendor format
0096_20080918_112336_MGL.all.mb56.gz 9.45MB Simrad multibeam vendor format
0097_20080918_132336_MGL.all.mb56.gz 9.83MB Simrad multibeam vendor format
0098_20080918_152336_MGL.all.mb56.gz 10.26MB Simrad multibeam vendor format
0099_20080918_172336_MGL.all.mb56.gz 9.67MB Simrad multibeam vendor format
0100_20080918_192336_MGL.all.mb56.gz 8.98MB Simrad multibeam vendor format
0101_20080918_212335_MGL.all.mb56.gz 10.14MB Simrad multibeam vendor format
0102_20080918_232335_MGL.all.mb56.gz 9.48MB Simrad multibeam vendor format
0103_20080919_012335_MGL.all.mb56.gz 9.69MB Simrad multibeam vendor format
0104_20080919_032335_MGL.all.mb56.gz 12.03MB Simrad multibeam vendor format
0105_20080919_052335_MGL.all.mb56.gz 11.22MB Simrad multibeam vendor format
0106_20080919_072335_MGL.all.mb56.gz 9.10MB Simrad multibeam vendor format
0107_20080919_092335_MGL.all.mb56.gz 13.20MB Simrad multibeam vendor format
0108_20080919_112334_MGL.all.mb56.gz 14.38MB Simrad multibeam vendor format
0109_20080919_132334_MGL.all.mb56.gz 39.99MB Simrad multibeam vendor format
0110_20080919_152334_MGL.all.mb56.gz 47.07MB Simrad multibeam vendor format
0111_20080919_172334_MGL.all.mb56.gz 28.23MB Simrad multibeam vendor format
0112_20080919_192334_MGL.all.mb56.gz 31.21MB Simrad multibeam vendor format
0113_20080919_212334_MGL.all.mb56.gz 7.53MB Simrad multibeam vendor format
0114_20080919_232334_MGL.all.mb56.gz 7.04MB Simrad multibeam vendor format
0115_20080920_012334_MGL.all.mb56.gz 46.01MB Simrad multibeam vendor format
0116_20080920_032333_MGL.all.mb56.gz 45.71MB Simrad multibeam vendor format
0117_20080920_052333_MGL.all.mb56.gz 41.39MB Simrad multibeam vendor format
0118_20080920_072333_MGL.all.mb56.gz 51.69MB Simrad multibeam vendor format
0119_20080920_092333_MGL.all.mb56.gz 40.42MB Simrad multibeam vendor format
0120_20080920_112333_MGL.all.mb56.gz 36.73MB Simrad multibeam vendor format
0121_20080920_132333_MGL.all.mb56.gz 37.47MB Simrad multibeam vendor format
0122_20080920_152333_MGL.all.mb56.gz 37.13MB Simrad multibeam vendor format
0123_20080920_172332_MGL.all.mb56.gz 34.20MB Simrad multibeam vendor format
0124_20080920_192332_MGL.all.mb56.gz 26.49MB Simrad multibeam vendor format
0125_20080920_212332_MGL.all.mb56.gz 32.43MB Simrad multibeam vendor format
0126_20080920_232332_MGL.all.mb56.gz 35.19MB Simrad multibeam vendor format
0127_20080921_012332_MGL.all.mb56.gz 36.68MB Simrad multibeam vendor format
0128_20080921_032332_MGL.all.mb56.gz 38.07MB Simrad multibeam vendor format
0129_20080921_052332_MGL.all.mb56.gz 36.60MB Simrad multibeam vendor format
0130_20080921_072332_MGL.all.mb56.gz 35.69MB Simrad multibeam vendor format
0131_20080921_092331_MGL.all.mb56.gz 34.74MB Simrad multibeam vendor format
0132_20080921_112331_MGL.all.mb56.gz 29.64MB Simrad multibeam vendor format
0133_20080921_132331_MGL.all.mb56.gz 33.25MB Simrad multibeam vendor format
0134_20080921_152331_MGL.all.mb56.gz 47.37MB Simrad multibeam vendor format
0135_20080921_172331_MGL.all.mb56.gz 48.65MB Simrad multibeam vendor format
0136_20080921_192331_MGL.all.mb56.gz 40.45MB Simrad multibeam vendor format
0137_20080921_212331_MGL.all.mb56.gz 36.99MB Simrad multibeam vendor format
0138_20080921_232330_MGL.all.mb56.gz 36.98MB Simrad multibeam vendor format
0139_20080922_012330_MGL.all.mb56.gz 35.22MB Simrad multibeam vendor format
0140_20080922_032330_MGL.all.mb56.gz 34.76MB Simrad multibeam vendor format
0141_20080922_052330_MGL.all.mb56.gz 22.58MB Simrad multibeam vendor format
0142_20080923_181445_MGL.all.mb56.gz 35.93MB Simrad multibeam vendor format
0143_20080923_201445_MGL.all.mb56.gz 15.80MB Simrad multibeam vendor format
0144_20080923_221445_MGL.all.mb56.gz 7.70MB Simrad multibeam vendor format
0145_20080924_001444_MGL.all.mb56.gz 7.73MB Simrad multibeam vendor format
0146_20080924_021444_MGL.all.mb56.gz 7.69MB Simrad multibeam vendor format
0147_20080924_041444_MGL.all.mb56.gz 7.71MB Simrad multibeam vendor format
0148_20080924_061444_MGL.all.mb56.gz 7.39MB Simrad multibeam vendor format
0149_20080924_081444_MGL.all.mb56.gz 7.45MB Simrad multibeam vendor format
0150_20080924_101444_MGL.all.mb56.gz 7.50MB Simrad multibeam vendor format
0151_20080924_121444_MGL.all.mb56.gz 7.09MB Simrad multibeam vendor format
0152_20080924_141443_MGL.all.mb56.gz 15.52MB Simrad multibeam vendor format
0153_20080924_161443_MGL.all.mb56.gz 32.91MB Simrad multibeam vendor format
0154_20080924_181304_MGL.all.mb56.gz 33.94MB Simrad multibeam vendor format
0155_20080924_201246_MGL.all.mb56.gz 39.41MB Simrad multibeam vendor format
0156_20080924_221228_MGL.all.mb56.gz 45.23MB Simrad multibeam vendor format
0157_20080925_001210_MGL.all.mb56.gz 64.54MB Simrad multibeam vendor format
0158_20080925_021152_MGL.all.mb56.gz 62.16MB Simrad multibeam vendor format
0159_20080925_041134_MGL.all.mb56.gz 61.93MB Simrad multibeam vendor format
0160_20080925_061116_MGL.all.mb56.gz 54.57MB Simrad multibeam vendor format
0161_20080925_081112_MGL.all.mb56.gz 38.50MB Simrad multibeam vendor format
0162_20080925_101112_MGL.all.mb56.gz 33.16MB Simrad multibeam vendor format
0163_20080925_121112_MGL.all.mb56.gz 111.79MB Simrad multibeam vendor format
0164_20080925_205758_MGL.all.mb56.gz 7.85MB Simrad multibeam vendor format
0165_20080925_225758_MGL.all.mb56.gz 8.21MB Simrad multibeam vendor format
0166_20080926_005758_MGL.all.mb56.gz 8.11MB Simrad multibeam vendor format
0167_20080926_025757_MGL.all.mb56.gz 8.03MB Simrad multibeam vendor format
0168_20080926_045757_MGL.all.mb56.gz 8.34MB Simrad multibeam vendor format
0169_20080926_065757_MGL.all.mb56.gz 8.72MB Simrad multibeam vendor format
0170_20080926_085757_MGL.all.mb56.gz 9.04MB Simrad multibeam vendor format
0171_20080926_105757_MGL.all.mb56.gz 9.15MB Simrad multibeam vendor format
0172_20080926_125757_MGL.all.mb56.gz 9.12MB Simrad multibeam vendor format
0173_20080926_145757_MGL.all.mb56.gz 9.41MB Simrad multibeam vendor format
0174_20080926_165757_MGL.all.mb56.gz 6.71MB Simrad multibeam vendor format
0175_20080927_060741_MGL.all.mb56.gz 5.63MB Simrad multibeam vendor format
0176_20080928_024407_MGL.all.mb56.gz 45.10MB Simrad multibeam vendor format
0177_20080928_044407_MGL.all.mb56.gz 48.97MB Simrad multibeam vendor format
0178_20080928_064407_MGL.all.mb56.gz 27.04MB Simrad multibeam vendor format
0179_20080928_084406_MGL.all.mb56.gz 28.65MB Simrad multibeam vendor format
0180_20080928_104406_MGL.all.mb56.gz 33.39MB Simrad multibeam vendor format
0181_20080928_124406_MGL.all.mb56.gz 31.36MB Simrad multibeam vendor format
0182_20080928_144406_MGL.all.mb56.gz 28.54MB Simrad multibeam vendor format
0183_20080928_164406_MGL.all.mb56.gz 31.92MB Simrad multibeam vendor format
0184_20080928_184406_MGL.all.mb56.gz 39.52MB Simrad multibeam vendor format
0185_20080928_204406_MGL.all.mb56.gz 44.43MB Simrad multibeam vendor format
0186_20080928_224405_MGL.all.mb56.gz 52.39MB Simrad multibeam vendor format
0187_20080929_004405_MGL.all.mb56.gz 48.46MB Simrad multibeam vendor format
0188_20080929_024405_MGL.all.mb56.gz 50.68MB Simrad multibeam vendor format
0189_20080929_044405_MGL.all.mb56.gz 19.59MB Simrad multibeam vendor format
0190_20080929_064405_MGL.all.mb56.gz 8.06MB Simrad multibeam vendor format
0191_20080929_084405_MGL.all.mb56.gz 1.05MB Simrad multibeam vendor format
0191_20080929_091146_MGL.all.mb56.gz 2.41MB Simrad multibeam vendor format
0191_20080929_093507_MGL.all.mb56.gz 3.36MB Simrad multibeam vendor format
0191_20080929_095619_MGL.all.mb56.gz 1.78MB Simrad multibeam vendor format
0191_20080929_100249_MGL.all.mb56.gz 0.77MB Simrad multibeam vendor format
0192_20080929_100524_MGL.all.mb56.gz 35.96MB Simrad multibeam vendor format
0193_20080929_120524_MGL.all.mb56.gz 33.95MB Simrad multibeam vendor format
0194_20080929_140523_MGL.all.mb56.gz 25.87MB Simrad multibeam vendor format
0195_20080929_160523_MGL.all.mb56.gz 10.90MB Simrad multibeam vendor format
0196_20080929_180523_MGL.all.mb56.gz 8.71MB Simrad multibeam vendor format
0197_20080929_200523_MGL.all.mb56.gz 9.12MB Simrad multibeam vendor format
0198_20080929_220523_MGL.all.mb56.gz 9.03MB Simrad multibeam vendor format
0199_20080930_000523_MGL.all.mb56.gz 8.93MB Simrad multibeam vendor format
0200_20080930_020523_MGL.all.mb56.gz 8.91MB Simrad multibeam vendor format
0201_20080930_040522_MGL.all.mb56.gz 9.43MB Simrad multibeam vendor format
0202_20080930_060522_MGL.all.mb56.gz 9.60MB Simrad multibeam vendor format
0203_20080930_080522_MGL.all.mb56.gz 9.36MB Simrad multibeam vendor format
0204_20080930_100522_MGL.all.mb56.gz 9.24MB Simrad multibeam vendor format
0205_20080930_120522_MGL.all.mb56.gz 9.36MB Simrad multibeam vendor format
0206_20080930_140522_MGL.all.mb56.gz 9.29MB Simrad multibeam vendor format
0207_20080930_160522_MGL.all.mb56.gz 7.67MB Simrad multibeam vendor format
0208_20080930_180522_MGL.all.mb56.gz 7.71MB Simrad multibeam vendor format
0209_20080930_200521_MGL.all.mb56.gz 8.95MB Simrad multibeam vendor format
0210_20080930_220521_MGL.all.mb56.gz 9.45MB Simrad multibeam vendor format
0211_20081001_000521_MGL.all.mb56.gz 22.09MB Simrad multibeam vendor format
0212_20081001_020521_MGL.all.mb56.gz 37.35MB Simrad multibeam vendor format
0213_20081001_040521_MGL.all.mb56.gz 38.11MB Simrad multibeam vendor format
0214_20081001_060521_MGL.all.mb56.gz 26.59MB Simrad multibeam vendor format
0215_20081001_080521_MGL.all.mb56.gz 9.62MB Simrad multibeam vendor format
0216_20081001_100520_MGL.all.mb56.gz 8.23MB Simrad multibeam vendor format
0217_20081001_120520_MGL.all.mb56.gz 9.22MB Simrad multibeam vendor format
0218_20081001_140520_MGL.all.mb56.gz 9.84MB Simrad multibeam vendor format
0219_20081001_160520_MGL.all.mb56.gz 9.52MB Simrad multibeam vendor format
0220_20081001_180745_MGL.all.mb56.gz 9.11MB Simrad multibeam vendor format
0221_20081001_200803_MGL.all.mb56.gz 9.08MB Simrad multibeam vendor format
0222_20081001_220821_MGL.all.mb56.gz 23.30MB Simrad multibeam vendor format
0223_20081002_000839_MGL.all.mb56.gz 34.21MB Simrad multibeam vendor format
0224_20081002_020856_MGL.all.mb56.gz 30.68MB Simrad multibeam vendor format
0225_20081002_040914_MGL.all.mb56.gz 36.98MB Simrad multibeam vendor format
0226_20081002_060932_MGL.all.mb56.gz 36.93MB Simrad multibeam vendor format
0227_20081002_080936_MGL.all.mb56.gz 32.96MB Simrad multibeam vendor format
0228_20081002_100936_MGL.all.mb56.gz 39.80MB Simrad multibeam vendor format
0229_20081002_120936_MGL.all.mb56.gz 49.45MB Simrad multibeam vendor format
0230_20081002_140936_MGL.all.mb56.gz 37.75MB Simrad multibeam vendor format
0231_20081002_160936_MGL.all.mb56.gz 23.24MB Simrad multibeam vendor format
0232_20081002_180936_MGL.all.mb56.gz 22.40MB Simrad multibeam vendor format
0233_20081002_200936_MGL.all.mb56.gz 10.13MB Simrad multibeam vendor format
0234_20081002_220936_MGL.all.mb56.gz 10.27MB Simrad multibeam vendor format
0235_20081003_000935_MGL.all.mb56.gz 10.56MB Simrad multibeam vendor format
0236_20081003_020935_MGL.all.mb56.gz 10.24MB Simrad multibeam vendor format
0237_20081003_040935_MGL.all.mb56.gz 11.55MB Simrad multibeam vendor format
0238_20081003_060935_MGL.all.mb56.gz 11.22MB Simrad multibeam vendor format
0239_20081003_080935_MGL.all.mb56.gz 11.06MB Simrad multibeam vendor format
0240_20081003_100935_MGL.all.mb56.gz 10.84MB Simrad multibeam vendor format
0241_20081003_120935_MGL.all.mb56.gz 10.66MB Simrad multibeam vendor format
0242_20081003_140934_MGL.all.mb56.gz 10.58MB Simrad multibeam vendor format
0243_20081003_160934_MGL.all.mb56.gz 10.68MB Simrad multibeam vendor format
0244_20081003_180934_MGL.all.mb56.gz 10.63MB Simrad multibeam vendor format
0245_20081003_200934_MGL.all.mb56.gz 10.63MB Simrad multibeam vendor format
0246_20081003_220934_MGL.all.mb56.gz 10.44MB Simrad multibeam vendor format
0247_20081004_000934_MGL.all.mb56.gz 10.35MB Simrad multibeam vendor format
0248_20081004_020934_MGL.all.mb56.gz 10.22MB Simrad multibeam vendor format
0249_20081004_040933_MGL.all.mb56.gz 10.69MB Simrad multibeam vendor format
0250_20081004_060933_MGL.all.mb56.gz 10.77MB Simrad multibeam vendor format
0251_20081004_080933_MGL.all.mb56.gz 11.19MB Simrad multibeam vendor format
0252_20081004_100933_MGL.all.mb56.gz 10.52MB Simrad multibeam vendor format
0253_20081004_120933_MGL.all.mb56.gz 10.22MB Simrad multibeam vendor format
0254_20081004_140933_MGL.all.mb56.gz 10.59MB Simrad multibeam vendor format
0255_20081004_160933_MGL.all.mb56.gz 2.41MB Simrad multibeam vendor format
0256_20081004_180933_MGL.all.mb56.gz 10.46MB Simrad multibeam vendor format
0257_20081004_200932_MGL.all.mb56.gz 10.45MB Simrad multibeam vendor format
0258_20081004_220932_MGL.all.mb56.gz 10.65MB Simrad multibeam vendor format
0259_20081005_000932_MGL.all.mb56.gz 10.93MB Simrad multibeam vendor format
0260_20081005_020932_MGL.all.mb56.gz 10.96MB Simrad multibeam vendor format
0261_20081005_040932_MGL.all.mb56.gz 10.51MB Simrad multibeam vendor format
0262_20081005_060932_MGL.all.mb56.gz 10.39MB Simrad multibeam vendor format
0263_20081005_080931_MGL.all.mb56.gz 10.55MB Simrad multibeam vendor format
0264_20081005_100931_MGL.all.mb56.gz 10.47MB Simrad multibeam vendor format
0265_20081005_120931_MGL.all.mb56.gz 10.36MB Simrad multibeam vendor format
0266_20081005_140931_MGL.all.mb56.gz 10.13MB Simrad multibeam vendor format
0267_20081005_160931_MGL.all.mb56.gz 10.16MB Simrad multibeam vendor format
0268_20081005_180931_MGL.all.mb56.gz 9.96MB Simrad multibeam vendor format
0269_20081005_200931_MGL.all.mb56.gz 7.73MB Simrad multibeam vendor format
0270_20081005_220931_MGL.all.mb56.gz 10.72MB Simrad multibeam vendor format
0271_20081006_000930_MGL.all.mb56.gz 11.10MB Simrad multibeam vendor format
0272_20081006_020930_MGL.all.mb56.gz 11.07MB Simrad multibeam vendor format
0273_20081006_040930_MGL.all.mb56.gz 10.98MB Simrad multibeam vendor format
0274_20081006_060930_MGL.all.mb56.gz 21.15MB Simrad multibeam vendor format
0275_20081006_080930_MGL.all.mb56.gz 17.39MB Simrad multibeam vendor format
0276_20081006_100930_MGL.all.mb56.gz 32.44MB Simrad multibeam vendor format
0277_20081006_120930_MGL.all.mb56.gz 46.76MB Simrad multibeam vendor format
0278_20081006_140929_MGL.all.mb56.gz 78.48MB Simrad multibeam vendor format
9999.all.mb56.gz 29.39MB Simrad multibeam vendor format

Metadata Files: 1

Files File Size Description
MGL0814_Multibeam.xml NGDC created ISO metadata